Location: Alladorf
(49.9620°N, 11.3790°E)
Time: 20:04:15
(UTC+00:00)

NOAA 6 - Pass Details

Date: 29 November 2020
Orbit: 773 x 786 km, 98.7° (Epoch: 24 January)

Event Time Altitude Azimuth Distance (km) Brightness Sun altitude
Rises 06:03:15 0° 10° (N) 3,265 7.1 -7.2°
Reaches altitude 10° 06:05:38 10° 5° (N) 2,332 6.3 -6.9°
Maximum altitude 06:10:32 47° 293° (WNW) 1,018 4.3 -6.2°
Drops below altitude 10° 06:15:25 10° 220° (SW) 2,316 6.4 -5.5°
Sets 06:17:46 0° 215° (SW) 3,240 7.2 -5.1°
